FW5912 Weather Reports


time (UTC)temp
C
wind
direction
speed
KPH
gust
KPH
rain 1hr
cm
rain 24hr
cm
rain mn
cm
humidity
%
barometer
mb
20260510093106 24 138 14.5 27.4 0.00 0.03 0.00 92 1012.1
20260510091557 24 165 16.1 24.1 0.00 0.03 0.00 92 1012.2
20260510090054 24 105 17.7 25.7 0.00 0.03 0.00 92 1012.2
20260510084554 24 119 17.7 30.6 0.00 0.03 0.00 92 1012.1
20260510083055 24 126 17.7 27.4 0.00 0.03 0.00 91 1012.0
20260510081623 24 139 19.3 29.0 0.00 0.03 0.00 91 1012.1
20260510080054 24 140 19.3 27.4 0.00 0.03 0.00 91 1012.1
20260510074553 24 128 22.5 32.2 0.00 0.03 0.00 91 1011.9
20260510073106 24 134 22.5 30.6 0.00 0.03 0.00 91 1012.1
20260510071600 24 146 14.5 22.5 0.00 0.03 0.00 91 1012.3
20260510070058 24 126 17.7 33.8 0.00 0.03 0.00 91 1012.3
20260510064601 24 141 16.1 29.0 0.00 0.03 0.00 91 1012.5
20260510063059 24 155 17.7 27.4 0.00 0.03 0.00 91 1012.6
20260510061557 24 132 22.5 37.0 0.00 0.03 0.00 91 1012.7
20260510060058 24 121 22.5 33.8 0.00 0.03 0.00 91 1012.7
20260510054554 24 135 19.3 29.0 0.00 0.03 0.00 91 1012.8
20260510053106 24 87 19.3 32.2 0.00 0.03 0.00 91 1012.8
20260510051604 24 71 19.3 32.2 0.00 0.03 0.00 90 1012.8
20260510050111 24 96 19.3 30.6 0.00 0.03 0.00 90 1013.1
20260510044604 24 73 19.3 30.6 0.00 0.03 0.03 91 1013.2
20260510043059 24 88 16.1 27.4 0.00 0.03 0.03 91 1013.2
20260510041601 24 89 14.5 24.1 0.00 0.03 0.03 91 1013.5
20260510040053 25 94 12.9 19.3 0.00 0.03 0.03 91 1013.3
20260510034557 24 66 8.0 19.3 0.00 0.03 0.03 90 1013.4
20260510033108 25 57 11.3 20.9 0.00 0.03 0.03 90 1013.2
20260510031555 25 64 6.4 20.9 0.00 0.03 0.03 90 1013.2
20260510030111 25 90 11.3 16.1 0.00 0.03 0.03 89 1013.1
20260510024556 25 42 9.7 19.3 0.00 0.03 0.03 88 1012.8
20260510023055 25 84 6.4 17.7 0.00 0.03 0.03 89 1012.5
20260510021555 25 66 8.0 19.3 0.00 0.03 0.03 88 1012.2
20260510020054 25 104 6.4 16.1 0.00 0.03 0.03 88 1012.0
20260510014601 25 89 6.4 19.3 0.00 0.03 0.03 88 1011.7
20260510013055 25 121 12.9 19.3 0.00 0.03 0.03 89 1011.0
20260510011555 25 107 11.3 19.3 0.00 0.03 0.03 90 1010.9
20260510010054 25 121 14.5 20.9 0.00 0.03 0.03 90 1010.9
20260510004553 25 194 12.9 24.1 0.00 0.03 0.03 90 1010.5
20260510003102 25 123 16.1 25.7 0.00 0.03 0.03 89 1010.6
20260510001556 25 124 19.3 30.6 0.00 0.03 0.03 89 1010.4
20260510000057 26 146 19.3 25.7 0.00 0.03 0.03 89 1010.2
20260509234600 26 156 16.1 27.4 0.00 0.03 0.03 88 1010.4
20260509233103 26 131 16.1 25.7 0.00 0.03 0.03 87 1010.4
20260509231555 26 128 9.7 17.7 0.00 0.03 0.03 87 1010.2
20260509230059 26 117 8.0 16.1 0.00 0.03 0.03 86 1010.2
20260509224553 27 126 6.4 12.9 0.00 0.03 0.03 86 1010.1
20260509223100 27 167 9.7 17.7 0.00 0.03 0.03 87 1010.0
20260509221556 27 123 12.9 17.7 0.00 0.03 0.03 86 1009.9
20260509214556 27 107 8.0 14.5 0.00 0.05 0.03 85 1009.8
20260509213059 27 149 3.2 11.3 0.00 0.05 0.03 86 1009.9
20260509211553 27 76 4.8 12.9 0.00 0.05 0.03 87 1009.9
20260509210055 26 71 4.8 12.9 0.00 0.05 0.03 87 1009.9
20260509204556 26 71 9.7 12.9 0.00 0.05 0.03 87 1009.8
20260509203106 26 62 6.4 12.9 0.00 0.05 0.03 86 1009.9
20260509201601 27 131 6.4 14.5 0.00 0.05 0.03 86 1010.0
20260509200108 27 121 11.3 14.5 0.00 0.05 0.03 85 1010.1
20260509194554 27 121 4.8 6.4 0.00 0.05 0.03 82 1010.6
20260509193114 27 111 3.2 9.7 0.00 0.05 0.03 82 1010.8
20260509191553 27 350 3.2 9.7 0.00 0.05 0.03 79 1010.9
20260509190059 27 331 8.0 16.1 0.00 0.05 0.03 80 1010.9
20260509184607 27 18 6.4 14.5 0.00 0.05 0.03 78 1010.9
20260509183057 27 335 4.8 9.7 0.00 0.05 0.03 78 1011.0
20260509181603 26 301 6.4 12.9 0.00 0.05 0.03 84 1011.1
20260509180055 26 90 0.0 8.0 0.00 0.05 0.03 88 1011.1
20260509174602 25 95 6.4 11.3 0.00 0.05 0.03 89 1011.5
20260509173106 25 97 3.2 4.8 0.00 0.05 0.03 90 1012.0
20260509171615 25 238 3.2 8.0 0.00 0.05 0.03 91 1011.9
20260509170057 25 0 0.0 4.8 0.00 0.05 0.03 92 1011.7
20260509164553 25 304 0.0 4.8 0.00 0.05 0.03 92 1011.7
20260509163107 25 0 0.0 4.8 0.00 0.05 0.03 92 1012.0
20260509161554 25 194 4.8 8.0 0.00 0.05 0.03 92 1011.9
20260509160054 25 146 0.0 4.8 0.00 0.05 0.03 93 1012.0
20260509154554 24 197 3.2 6.4 0.00 0.05 0.03 94 1012.1
20260509153052 24 0 1.6 16.1 0.00 0.05 0.03 94 1011.8
20260509151603 24 88 3.2 6.4 0.00 0.05 0.03 94 1011.6
20260509150104 24 117 1.6 4.8 0.00 0.05 0.03 94 1011.6
20260509144659 24 158 0.0 3.2 0.00 0.05 0.03 94 1012.1
20260509143054 24 211 0.0 6.4 0.00 0.05 0.03 94 1012.3
20260509141552 24 189 1.6 3.2 0.00 0.05 0.03 94 1011.8
20260509140059 24 130 4.8 6.4 0.00 0.05 0.03 93 1011.6
20260509134553 24 150 6.4 11.3 0.00 0.05 0.03 94 1011.9
20260509133054 24 213 1.6 4.8 0.00 0.05 0.03 94 1011.7
20260509131553 24 335 3.2 4.8 0.00 0.05 0.03 94 1011.8
20260509130105 24 0 0.0 0.0 0.00 0.05 0.03 94 1011.4
20260509124610 23 0 0.0 1.6 0.00 0.05 0.03 94 1011.4
20260509123102 23 59 0.0 4.8 0.00 0.05 0.03 94 1011.7
20260509121559 23 38 0.0 11.3 0.00 0.05 0.03 94 1011.7
20260509120106 23 351 1.6 3.2 0.00 0.05 0.03 94 1011.9
20260509114603 23 313 0.0 3.2 0.03 0.05 0.03 94 1011.3
20260509113056 23 328 1.6 3.2 0.03 0.05 0.03 94 1011.3
20260509111553 23 0 0.0 0.0 0.03 0.05 0.03 94 1011.0
20260509110053 23 0 0.0 3.2 0.03 0.05 0.03 94 1010.9
20260509104553 23 0 0.0 0.0 0.00 0.03 0.00 94 1010.8
20260509103054 23 0 0.0 3.2 0.00 0.03 0.00 94 1010.8
20260509101557 23 111 1.6 4.8 0.00 0.03 0.00 94 1010.7
20260509100058 23 109 3.2 9.7 0.00 0.03 0.00 94 1010.6
20260509094554 23 120 6.4 11.3 0.00 0.03 0.00 94 1010.4